DLH712 EDDF-RKSI

Flight info

Callsign DLH712
Flight time N/A
Altitude 31000
Route SULUS7S/18 SULUS Z650 VEMUT/N0480F350 DCT PEPIK DCT BUDOP/N0482F370 DCT DINRO N743 UDROS UM859 KARDE UN644 ROLIN DCT TAGAR DCT BT DCT BARAD M747 SUBUT T916 BALUN/K0889F370 T916 ARNUS/K0893F390 T916 PIGAL M610 RULAD/K0885S1190 A343 POSOT B215 FKG W188 BATUS/K0889S1250 W188 LIKMI W270 DKO W69 HUR B339 LADIX W34 VAPGU W100 ORAVA W201 UNSEK A326 DONVO G597 AGAVO/N0450F290 Y644 REBIT REBIT2H
Aircraft A359/H-SADE2E3GHIJ1J2J3J4J5M1P2RWXYZ/LB1D1

Departure

Time 2026-05-04 20:56
Airport Frankfurt Main Airport (EDDF)

Arrival

Time N/A
Airport Incheon International Airport (RKSI)
Time Latitude Longitude Altitude Speed Heading
2026-05-04 20:16 50.04805 8.56586 362 ft 0 kts 340°
2026-05-04 20:41 50.04794 8.56592 364 ft 4 kts 341°
2026-05-04 20:42 50.04770 8.56605 369 ft 2 kts 338°
2026-05-04 20:42 50.04749 8.56615 369 ft 4 kts
2026-05-04 20:42 50.04728 8.56599 369 ft 4 kts 52°
2026-05-04 20:42 50.04714 8.56571 368 ft 4 kts 51°
2026-05-04 20:43 50.04696 8.56541 362 ft 4 kts 39°
2026-05-04 20:43 50.04674 8.56517 362 ft 4 kts 24°
2026-05-04 20:43 50.04648 8.56503 367 ft 4 kts 13°
2026-05-04 20:43 50.04624 8.56493 369 ft 2 kts 24°
2026-05-04 20:44 50.04637 8.56502 369 ft 4 kts 22°
2026-05-04 20:44 50.04661 8.56504 369 ft 4 kts 343°
2026-05-04 20:44 50.04676 8.56474 370 ft 4 kts 293°
2026-05-04 20:44 50.04680 8.56435 366 ft 4 kts 266°
2026-05-04 20:45 50.04668 8.56406 370 ft 2 kts 230°
2026-05-04 20:45 50.04669 8.56413 362 ft 4 kts 310°
2026-05-04 20:45 50.04661 8.56412 362 ft 0 kts 249°
2026-05-04 20:48 50.04655 8.56384 369 ft 6 kts 249°
2026-05-04 20:49 50.04628 8.56276 368 ft 14 kts 249°
2026-05-04 20:49 50.04594 8.56134 370 ft 14 kts 249°
2026-05-04 20:49 50.04558 8.55997 366 ft 12 kts 237°
2026-05-04 20:49 50.04485 8.55937 370 ft 12 kts 198°
2026-05-04 20:50 50.04401 8.55911 366 ft 13 kts 180°
2026-05-04 20:50 50.04303 8.55954 365 ft 16 kts 159°
2026-05-04 20:50 50.04223 8.55873 367 ft 16 kts 249°
2026-05-04 20:50 50.04181 8.55696 364 ft 18 kts 251°
2026-05-04 20:51 50.04133 8.55499 364 ft 20 kts 249°
2026-05-04 20:51 50.04084 8.55291 366 ft 21 kts 250°
2026-05-04 20:51 50.04034 8.55082 364 ft 21 kts 250°
2026-05-04 20:51 50.03983 8.54868 359 ft 22 kts 249°
2026-05-04 20:52 50.03928 8.54640 362 ft 23 kts 249°
2026-05-04 20:52 50.03870 8.54405 352 ft 24 kts 243°
2026-05-04 20:52 50.03790 8.54180 359 ft 24 kts 249°
2026-05-04 20:52 50.03731 8.53936 356 ft 24 kts 249°
2026-05-04 20:53 50.03672 8.53691 358 ft 19 kts 249°
2026-05-04 20:53 50.03665 8.53661 357 ft 6 kts 249°
2026-05-04 20:53 50.03611 8.53554 357 ft 17 kts 213°
2026-05-04 20:53 50.03501 8.53474 356 ft 18 kts 204°
2026-05-04 20:54 50.03423 8.53333 354 ft 18 kts 248°
2026-05-04 20:54 50.03376 8.53136 354 ft 21 kts 250°
2026-05-04 20:54 50.03323 8.52916 349 ft 22 kts 249°
2026-05-04 20:54 50.03269 8.52691 338 ft 17 kts 249°
2026-05-04 20:55 50.03236 8.52610 351 ft 10 kts 214°
2026-05-04 20:55 50.03168 8.52596 351 ft 10 kts 180°
2026-05-04 20:55 50.03044 8.52598 342 ft 40 kts 179°
2026-05-04 20:55 50.02562 8.52601 350 ft 98 kts 179°
2026-05-04 20:56 50.01706 8.52609 336 ft 147 kts 180°
2026-05-04 20:56 50.00546 8.52633 525 ft 172 kts 180°
2026-05-04 20:56 49.99363 8.52652 1138 ft 172 kts 181°
2026-05-04 20:56 49.98133 8.52653 1551 ft 185 kts 180°
2026-05-04 20:57 49.96817 8.53088 1723 ft 206 kts 152°
2026-05-04 20:57 49.95802 8.54743 1928 ft 222 kts 120°
2026-05-04 20:57 49.95050 8.56842 2448 ft 228 kts 118°
2026-05-04 20:57 49.94326 8.59076 3040 ft 230 kts 112°
2026-05-04 20:58 49.93980 8.61492 3489 ft 239 kts 95°
2026-05-04 20:58 49.93868 8.64198 3758 ft 256 kts 93°
2026-05-04 20:58 49.93766 8.66967 4208 ft 264 kts 97°
2026-05-04 20:58 49.93200 8.69672 4773 ft 265 kts 125°
2026-05-04 20:59 49.91915 8.71656 5378 ft 263 kts 145°
2026-05-04 20:59 49.90410 8.73323 6022 ft 265 kts 147°
2026-05-04 20:59 49.88930 8.75022 6668 ft 268 kts 140°
2026-05-04 20:59 49.87760 8.77305 7312 ft 273 kts 124°
2026-05-04 21:00 49.86814 8.79876 7938 ft 277 kts 122°
2026-05-04 21:00 49.85883 8.82507 8580 ft 279 kts 122°
2026-05-04 21:00 49.84941 8.85147 9279 ft 281 kts 123°
2026-05-04 21:00 49.83983 8.87807 9947 ft 284 kts 123°
2026-05-04 21:01 49.82996 8.90520 10360 ft 296 kts 123°
2026-05-04 21:01 49.81954 8.93381 10615 ft 313 kts 122°
2026-05-04 21:01 49.80856 8.96394 10872 ft 330 kts 122°
2026-05-04 21:01 49.79700 8.99563 11134 ft 346 kts 122°
2026-05-04 21:02 49.78498 9.02864 11528 ft 356 kts 122°
2026-05-04 21:02 49.77268 9.06236 12020 ft 362 kts 122°
2026-05-04 21:02 49.76166 9.09766 12642 ft 368 kts 111°
2026-05-04 21:02 49.75456 9.13589 13227 ft 373 kts 106°
2026-05-04 21:03 49.74847 9.17496 13786 ft 377 kts 106°
2026-05-04 21:03 49.74236 9.21452 14269 ft 381 kts 106°
2026-05-04 21:03 49.73602 9.25429 14810 ft 383 kts 107°
2026-05-04 21:03 49.72948 9.29446 15301 ft 386 kts 107°
2026-05-04 21:04 49.72290 9.33482 15824 ft 389 kts 107°
2026-05-04 21:04 49.71626 9.37555 16334 ft 393 kts 107°
2026-05-04 21:04 49.70955 9.41660 16844 ft 396 kts 107°
2026-05-04 21:04 49.70278 9.45798 17354 ft 398 kts 107°
2026-05-04 21:05 49.69594 9.49968 17821 ft 402 kts 107°
2026-05-04 21:05 49.68912 9.54117 18291 ft 406 kts 107°
2026-05-04 21:05 49.68211 9.58351 18725 ft 409 kts 107°
2026-05-04 21:05 49.67736 9.61232 19026 ft 411 kts 107°
2026-05-04 21:06 49.67205 9.67058 19590 ft 422 kts 91°
2026-05-04 21:06 49.67643 9.71562 20096 ft 427 kts 78°
2026-05-04 21:06 49.68414 9.76020 20567 ft 431 kts 76°
2026-05-04 21:06 49.69223 9.80492 21010 ft 434 kts 76°
2026-05-04 21:07 49.69764 9.83495 21330 ft 438 kts 76°
2026-05-04 21:07 49.70586 9.88092 21852 ft 440 kts 76°
2026-05-04 21:07 49.71476 9.92577 22268 ft 445 kts 71°
2026-05-04 21:07 49.72838 9.96899 22692 ft 450 kts 59°
2026-05-04 21:08 49.74596 10.00908 23222 ft 451 kts 55°
2026-05-04 21:08 49.76433 10.04860 23648 ft 455 kts 55°
2026-05-04 21:08 49.78298 10.08861 23955 ft 460 kts 55°
2026-05-04 21:08 49.80167 10.12889 24331 ft 463 kts 55°
2026-05-04 21:09 49.82043 10.16949 24705 ft 465 kts 55°
2026-05-04 21:09 49.83927 10.21039 25090 ft 468 kts 55°
2026-05-04 21:09 49.85821 10.25157 25477 ft 470 kts 55°
2026-05-04 21:09 49.87722 10.29301 25866 ft 473 kts 55°
2026-05-04 21:10 49.89631 10.33467 26235 ft 475 kts 55°
2026-05-04 21:10 49.91552 10.37669 26590 ft 478 kts 55°
2026-05-04 21:10 49.93475 10.41884 26944 ft 481 kts 55°
2026-05-04 21:10 49.95413 10.46136 27313 ft 484 kts 55°
2026-05-04 21:11 49.97364 10.50423 27629 ft 487 kts 55°
2026-05-04 21:11 49.99321 10.54731 28004 ft 489 kts 55°
2026-05-04 21:11 50.01286 10.59061 28379 ft 491 kts 55°
2026-05-04 21:11 50.03141 10.63521 28687 ft 493 kts 62°
2026-05-04 21:12 50.04542 10.68402 29006 ft 494 kts 73°
2026-05-04 21:12 50.05346 10.73590 29318 ft 494 kts 84°
2026-05-04 21:12 50.05523 10.78913 29617 ft 493 kts 95°
2026-05-04 21:12 50.05071 10.84170 29907 ft 490 kts 106°
2026-05-04 21:13 50.04165 10.89291 30178 ft 490 kts 110°
2026-05-04 21:13 50.03132 10.94340 30432 ft 492 kts 111°
2026-05-04 21:13 50.02038 10.99393 30706 ft 493 kts 112°
2026-05-04 21:13 50.00925 11.04443 30944 ft 495 kts 112°
2026-05-04 21:14 49.99821 11.09460 31187 ft 497 kts 112°
2026-05-04 21:14 49.98710 11.14546 31431 ft 498 kts 112°
2026-05-04 21:14 49.97602 11.19652 31680 ft 500 kts 111°
2026-05-04 21:14 49.96497 11.24782 31899 ft 501 kts 111°
2026-05-04 21:15 49.95402 11.29928 32180 ft 501 kts 111°
2026-05-04 21:15 49.94314 11.35067 32518 ft 500 kts 111°
2026-05-04 21:15 49.93229 11.40189 32840 ft 499 kts 111°
2026-05-04 21:15 49.92177 11.45311 33175 ft 497 kts 109°
2026-05-04 21:16 49.91222 11.50431 33720 ft 491 kts 109°
2026-05-04 21:16 49.90315 11.55513 34069 ft 489 kts 108°
2026-05-04 21:16 49.89414 11.60601 34233 ft 490 kts 108°
2026-05-04 21:16 49.88530 11.65722 34380 ft 492 kts 106°
2026-05-04 21:17 49.87913 11.70953 34567 ft 494 kts 102°
2026-05-04 21:17 49.87401 11.76208 34750 ft 495 kts 101°
2026-05-04 21:17 49.86918 11.81504 34920 ft 495 kts 101°
2026-05-04 21:17 49.86451 11.86808 34957 ft 498 kts 100°
2026-05-04 21:18 49.85510 11.97499 34979 ft 501 kts 100°
2026-05-04 21:18 49.84562 12.08189 34978 ft 500 kts 100°
2026-05-04 21:19 49.83594 12.18864 34947 ft 500 kts 101°
2026-05-04 21:19 49.82616 12.29526 34947 ft 501 kts 101°
2026-05-04 21:20 49.81633 12.40210 34952 ft 501 kts 101°
2026-05-04 21:20 49.80158 12.50632 34947 ft 498 kts 109°
2026-05-04 21:21 49.78174 12.60903 34951 ft 498 kts 110°
2026-05-04 21:21 49.76111 12.71112 34953 ft 498 kts 110°
2026-05-04 21:22 49.74034 12.81333 34955 ft 500 kts 110°
2026-05-04 21:22 49.71950 12.91583 34953 ft 500 kts 110°
2026-05-04 21:23 49.69868 13.01820 34955 ft 499 kts 110°
2026-05-04 21:23 49.67773 13.12052 34957 ft 499 kts 110°
2026-05-04 21:24 49.65669 13.22276 34938 ft 501 kts 110°
2026-05-04 21:24 49.63563 13.32488 34940 ft 499 kts 110°
2026-05-04 21:25 49.61442 13.42662 34940 ft 498 kts 110°
2026-05-04 21:25 49.59327 13.52820 34946 ft 498 kts 110°
2026-05-04 21:26 49.57197 13.62978 34948 ft 499 kts 110°
2026-05-04 21:26 49.55055 13.73149 34952 ft 500 kts 111°
2026-05-04 21:27 49.52889 13.83352 34957 ft 500 kts 111°
2026-05-04 21:27 49.50721 13.93529 34954 ft 501 kts 111°
2026-05-04 21:28 49.48542 14.03695 34956 ft 501 kts 111°
2026-05-04 21:28 49.46349 14.13870 34958 ft 502 kts 111°
2026-05-04 21:29 49.44147 14.24058 34953 ft 502 kts 111°
2026-05-04 21:29 49.41933 14.34246 34949 ft 502 kts 111°
2026-05-04 21:30 49.39713 14.44416 34936 ft 502 kts 111°
2026-05-04 21:30 49.37481 14.54573 34935 ft 503 kts 111°
2026-05-04 21:31 49.34117 14.69805 34934 ft 503 kts 111°
2026-05-04 21:32 49.31863 14.79956 34935 ft 502 kts 111°
2026-05-04 21:32 49.29617 14.90010 34932 ft 502 kts 111°
2026-05-04 21:33 49.27347 15.00126 34935 ft 503 kts 111°
2026-05-04 21:33 49.25091 15.10134 34933 ft 502 kts 111°
2026-05-04 21:34 49.22806 15.20226 34931 ft 502 kts 111°
2026-05-04 21:34 49.20510 15.30313 34935 ft 502 kts 111°
2026-05-04 21:35 49.18208 15.40386 34936 ft 502 kts 111°
2026-05-04 21:35 49.15896 15.50441 34935 ft 502 kts 111°
2026-05-04 21:36 49.13574 15.60486 34934 ft 501 kts 111°
2026-05-04 21:36 49.11245 15.70527 34932 ft 501 kts 111°
2026-05-04 21:37 49.08918 15.80525 34937 ft 500 kts 111°
2026-05-04 21:37 49.06577 15.90528 34936 ft 500 kts 111°
2026-05-04 21:38 49.04231 16.00502 34958 ft 500 kts 111°
2026-05-04 21:38 49.01872 16.10486 34958 ft 501 kts 111°
2026-05-04 21:39 48.99502 16.20476 34954 ft 502 kts 111°
2026-05-04 21:39 48.97121 16.30460 34951 ft 502 kts 111°
2026-05-04 21:40 48.94800 16.40151 34947 ft 502 kts 111°
2026-05-04 21:40 48.92397 16.50126 34951 ft 503 kts 111°
2026-05-04 21:41 48.90003 16.60035 34954 ft 503 kts 111°
2026-05-04 21:41 48.87581 16.70016 34952 ft 503 kts 111°
2026-05-04 21:42 48.85154 16.79969 34951 ft 503 kts 111°
2026-05-04 21:42 48.82722 16.89915 34951 ft 503 kts 111°
2026-05-04 21:43 48.80272 16.99877 34952 ft 503 kts 111°
2026-05-04 21:43 48.77438 17.09554 34973 ft 502 kts 122°
2026-05-04 21:44 48.73702 17.18504 34965 ft 502 kts 124°
2026-05-04 21:44 48.69828 17.27292 34966 ft 502 kts 125°
2026-05-04 21:45 48.65930 17.36060 34976 ft 502 kts 125°
2026-05-04 21:45 48.62042 17.44826 34985 ft 501 kts 125°
2026-05-04 21:46 48.58159 17.53580 34988 ft 501 kts 125°
2026-05-04 21:46 48.54272 17.62316 34986 ft 501 kts 124°
2026-05-04 21:47 48.50371 17.71057 34985 ft 503 kts 124°
2026-05-04 21:47 48.46465 17.79775 34991 ft 502 kts 124°
2026-05-04 21:48 48.42547 17.88493 35000 ft 502 kts 125°
2026-05-04 21:48 48.38625 17.97191 35002 ft 502 kts 124°
2026-05-04 21:49 48.34698 18.05869 35005 ft 502 kts 124°
2026-05-04 21:49 48.30797 18.14470 34996 ft 502 kts 124°
2026-05-04 21:50 48.26848 18.23151 35010 ft 502 kts 124°
2026-05-04 21:50 48.22875 18.31850 35017 ft 502 kts 124°
2026-05-04 21:51 48.18955 18.40405 35015 ft 502 kts 124°
2026-05-04 21:51 48.14997 18.49017 35021 ft 502 kts 124°
2026-05-04 21:52 48.11028 18.57627 35031 ft 502 kts 124°
2026-05-04 21:52 48.07055 18.66219 35030 ft 502 kts 124°
2026-05-04 21:53 48.03081 18.74786 35024 ft 502 kts 124°
2026-05-04 21:53 47.99096 18.83351 35046 ft 502 kts 124°
2026-05-04 21:54 47.95102 18.91904 35049 ft 502 kts 124°
2026-05-04 21:54 47.91104 19.00447 35045 ft 502 kts 124°
2026-05-04 21:55 47.87750 19.07586 35048 ft 502 kts 124°
2026-05-04 21:55 47.83771 19.16034 35052 ft 502 kts 124°
2026-05-04 21:56 47.79759 19.24528 35055 ft 502 kts 124°
2026-05-04 21:56 47.75736 19.33017 35041 ft 502 kts 124°
2026-05-04 21:57 47.71712 19.41482 35057 ft 502 kts 124°
2026-05-04 21:57 47.67678 19.49944 35057 ft 502 kts 124°
2026-05-04 21:58 47.63643 19.58378 35040 ft 502 kts 125°
2026-05-04 21:58 47.59596 19.66809 35063 ft 501 kts 125°
2026-05-04 21:59 47.55569 19.75174 35059 ft 501 kts 125°
2026-05-04 21:59 47.51522 19.83561 35038 ft 501 kts 125°
2026-05-04 22:00 47.47501 19.91861 35053 ft 501 kts 125°
2026-05-04 22:00 47.43437 20.00230 35061 ft 501 kts 125°
2026-05-04 22:01 47.39364 20.08594 35042 ft 502 kts 125°
2026-05-04 22:01 47.35285 20.16943 35040 ft 502 kts 125°
2026-05-04 22:02 47.31226 20.25225 35053 ft 502 kts 125°
2026-05-04 22:02 47.27134 20.33548 35048 ft 502 kts 125°
2026-05-04 22:03 47.23038 20.41858 35045 ft 502 kts 125°
2026-05-04 22:03 47.18933 20.50157 35045 ft 502 kts 125°
2026-05-04 22:04 47.14815 20.58460 35051 ft 502 kts 125°
2026-05-04 22:04 47.10691 20.66747 35053 ft 502 kts 125°
2026-05-04 22:05 47.06563 20.75017 35071 ft 502 kts 125°
2026-05-04 22:05 47.02430 20.83275 35055 ft 502 kts 125°
2026-05-04 22:06 46.98291 20.91519 35055 ft 502 kts 126°
2026-05-04 22:06 46.94147 20.99739 35063 ft 500 kts 125°
2026-05-04 22:07 46.90021 21.07913 35064 ft 499 kts 125°
2026-05-04 22:07 46.85888 21.16079 35064 ft 499 kts 125°
2026-05-04 22:08 46.81751 21.24225 35078 ft 499 kts 125°
2026-05-04 22:08 46.77610 21.32352 35076 ft 500 kts 125°
2026-05-04 22:09 46.73481 21.40433 35073 ft 499 kts 125°
2026-05-04 22:09 46.69369 21.48585 35286 ft 496 kts 121°
2026-05-04 22:09 46.67635 21.52895 35589 ft 492 kts 117°
2026-05-04 22:10 46.66002 21.57269 35822 ft 491 kts 116°
2026-05-04 22:10 46.64411 21.61658 35998 ft 491 kts 115°
2026-05-04 22:10 46.62837 21.66066 36172 ft 491 kts 115°
2026-05-04 22:10 46.61270 21.70470 36335 ft 491 kts 115°
2026-05-04 22:11 46.59697 21.74884 36484 ft 491 kts 115°
2026-05-04 22:11 46.58123 21.79279 36631 ft 491 kts 115°
2026-05-04 22:11 46.56540 21.83681 36793 ft 491 kts 116°
2026-05-04 22:11 46.54956 21.88066 36924 ft 491 kts 116°
2026-05-04 22:12 46.53366 21.92457 37066 ft 491 kts 115°
2026-05-04 22:12 46.50162 22.01278 37094 ft 496 kts 116°
2026-05-04 22:13 46.46931 22.10142 37099 ft 497 kts 116°
2026-05-04 22:13 46.43694 22.19000 37099 ft 497 kts 116°
2026-05-04 22:14 46.40449 22.27850 37106 ft 497 kts 116°
2026-05-04 22:14 46.37197 22.36694 37113 ft 497 kts 116°
2026-05-04 22:15 46.33937 22.45523 37112 ft 497 kts 116°
2026-05-04 22:15 46.30670 22.54353 37124 ft 498 kts 116°
2026-05-04 22:16 46.27395 22.63168 37124 ft 497 kts 116°
2026-05-04 22:16 46.24114 22.71971 37123 ft 497 kts 116°
2026-05-04 22:17 46.20832 22.80752 37127 ft 497 kts 116°
2026-05-04 22:17 46.17536 22.89536 37139 ft 497 kts 116°
2026-05-04 22:18 46.14236 22.98299 37129 ft 497 kts 116°
2026-05-04 22:18 46.10934 23.07048 37128 ft 497 kts 116°
2026-05-04 22:19 46.07643 23.15738 37123 ft 497 kts 116°
2026-05-04 22:19 46.04324 23.24469 37127 ft 497 kts 117°
2026-05-04 22:20 46.01003 23.33178 37117 ft 497 kts 117°
2026-05-04 22:20 45.97667 23.41899 37111 ft 497 kts 117°
2026-05-04 22:21 45.94331 23.50594 37113 ft 497 kts 117°
2026-05-04 22:21 45.90984 23.59292 37112 ft 497 kts 117°
2026-05-04 22:22 45.87635 23.67967 37112 ft 497 kts 117°
2026-05-04 22:22 45.84278 23.76632 37109 ft 497 kts 117°
2026-05-04 22:23 45.80914 23.85294 37105 ft 497 kts 117°
2026-05-04 22:23 45.77545 23.93938 37103 ft 497 kts 117°
2026-05-04 22:24 45.74170 24.02569 37103 ft 497 kts 117°
2026-05-04 22:24 45.70786 24.11196 37102 ft 497 kts 117°
2026-05-04 22:25 45.67391 24.19822 37103 ft 497 kts 117°
2026-05-04 22:25 45.63998 24.28423 37101 ft 497 kts 117°
2026-05-04 22:26 45.60597 24.37010 37103 ft 497 kts 117°
2026-05-04 22:26 45.57189 24.45591 37101 ft 497 kts 117°
2026-05-04 22:27 45.53775 24.54161 37105 ft 496 kts 118°
2026-05-04 22:27 45.50363 24.62704 37088 ft 496 kts 118°
2026-05-04 22:28 45.46939 24.71250 37081 ft 496 kts 118°
2026-05-04 22:28 45.43508 24.79771 37102 ft 496 kts 118°
2026-05-04 22:29 45.40069 24.88297 37089 ft 496 kts 118°
2026-05-04 22:29 45.36630 24.96805 37110 ft 496 kts 118°
2026-05-04 22:30 45.33185 25.05294 37088 ft 496 kts 118°
2026-05-04 22:30 45.29733 25.13781 37098 ft 496 kts 118°
2026-05-04 22:31 45.26276 25.22251 37096 ft 495 kts 118°
2026-05-04 22:31 45.22811 25.30707 37082 ft 496 kts 118°
2026-05-04 22:32 45.19365 25.39100 37081 ft 496 kts 118°
2026-05-04 22:32 45.15887 25.47542 37078 ft 496 kts 118°
2026-05-04 22:33 45.12403 25.55972 37071 ft 495 kts 119°
2026-05-04 22:33 45.08916 25.64386 37068 ft 495 kts 119°
2026-05-04 22:34 45.05425 25.72784 37066 ft 496 kts 119°
2026-05-04 22:34 45.01920 25.81189 37054 ft 496 kts 119°
2026-05-04 22:35 44.98416 25.89575 37054 ft 496 kts 119°
2026-05-04 22:35 44.94899 25.97960 37053 ft 496 kts 119°
2026-05-04 22:36 44.91375 26.06335 37053 ft 496 kts 120°
2026-05-04 22:36 44.87845 26.14697 37050 ft 496 kts 120°
2026-05-04 22:37 44.84312 26.23050 37047 ft 496 kts 120°
2026-05-04 22:37 44.80771 26.31396 37043 ft 496 kts 120°
2026-05-04 22:38 44.77226 26.39723 37043 ft 495 kts 120°
2026-05-04 22:38 44.73680 26.48025 37043 ft 495 kts 120°
2026-05-04 22:39 44.70134 26.56304 37043 ft 494 kts 120°
2026-05-04 22:39 44.66607 26.64519 37047 ft 494 kts 120°
2026-05-04 22:40 44.63058 26.72759 37045 ft 493 kts 120°
2026-05-04 22:40 44.59501 26.80999 37044 ft 493 kts 120°
2026-05-04 22:41 44.55937 26.89233 37047 ft 493 kts 120°
2026-05-04 22:41 44.52373 26.97442 37045 ft 494 kts 120°
2026-05-04 22:42 44.49398 27.04272 37048 ft 493 kts 120°
2026-05-04 22:42 44.45791 27.12529 37048 ft 494 kts 120°
2026-05-04 22:43 44.42226 27.20666 37053 ft 494 kts 120°
2026-05-04 22:43 44.38628 27.28862 37044 ft 494 kts 120°
2026-05-04 22:44 44.35026 27.37039 37048 ft 494 kts 120°
2026-05-04 22:44 44.31418 27.45200 37048 ft 494 kts 120°
2026-05-04 22:45 44.27804 27.53359 37052 ft 494 kts 120°
2026-05-04 22:45 44.22389 27.65552 37050 ft 493 kts 120°
2026-05-04 22:46 44.18775 27.73655 37056 ft 492 kts 120°
2026-05-04 22:46 44.15151 27.81752 37057 ft 492 kts 120°
2026-05-04 22:47 44.11555 27.89768 37054 ft 491 kts 120°
2026-05-04 22:47 44.07933 27.97819 37058 ft 491 kts 120°
2026-05-04 22:48 44.04306 28.05862 37058 ft 491 kts 120°
2026-05-04 22:48 44.00668 28.13906 37058 ft 491 kts 120°
2026-05-04 22:49 43.97030 28.21927 37054 ft 491 kts 120°
2026-05-04 22:49 43.93383 28.29944 37059 ft 492 kts 120°
2026-05-04 22:50 43.89726 28.37959 37059 ft 492 kts 120°
2026-05-04 22:50 43.86060 28.45976 37059 ft 492 kts 120°
2026-05-04 22:51 43.82408 28.53940 37059 ft 492 kts 120°
2026-05-04 22:51 43.78834 28.61710 37053 ft 492 kts 120°
2026-05-04 22:52 43.75285 28.69408 37055 ft 493 kts 119°
2026-05-04 22:52 43.71630 28.77316 37058 ft 493 kts 120°
2026-05-04 22:53 43.67866 28.85270 37048 ft 495 kts 122°
2026-05-04 22:53 43.63810 28.92955 37058 ft 496 kts 123°
2026-05-04 22:54 43.59699 29.00596 37050 ft 496 kts 123°
2026-05-04 22:54 43.55622 29.08270 37045 ft 496 kts 123°
2026-05-04 22:55 43.51564 29.15960 37045 ft 496 kts 123°
2026-05-04 22:55 43.47507 29.23645 37042 ft 497 kts 123°
2026-05-04 22:56 43.43430 29.31346 37042 ft 498 kts 123°
2026-05-04 22:56 43.39346 29.39035 37039 ft 498 kts 123°
2026-05-04 22:57 43.35261 29.46711 37039 ft 498 kts 123°
2026-05-04 22:57 43.31165 29.54377 37019 ft 498 kts 123°
2026-05-04 22:58 43.27086 29.61994 37039 ft 499 kts 123°
2026-05-04 22:58 43.22949 29.69697 37032 ft 498 kts 123°
2026-05-04 22:59 43.18858 29.77295 37006 ft 498 kts 123°
2026-05-04 22:59 43.14739 29.84937 37006 ft 498 kts 123°
2026-05-04 23:00 43.10614 29.92562 37026 ft 499 kts 123°
2026-05-04 23:00 43.06489 30.00169 37016 ft 497 kts 123°
2026-05-04 23:01 43.02362 30.07761 37010 ft 498 kts 123°
2026-05-04 23:01 42.98222 30.15357 37004 ft 498 kts 123°
2026-05-04 23:02 42.94082 30.22931 37005 ft 497 kts 123°
2026-05-04 23:02 42.89946 30.30473 37004 ft 496 kts 123°
2026-05-04 23:03 42.85812 30.38001 36994 ft 496 kts 123°
2026-05-04 23:03 42.81672 30.45523 37002 ft 496 kts 123°
2026-05-04 23:04 42.77531 30.53036 36989 ft 496 kts 123°
2026-05-04 23:04 42.74263 30.61155 36989 ft 485 kts 105°
2026-05-04 23:05 42.72789 30.70004 36985 ft 479 kts 95°
2026-05-04 23:05 42.71867 30.78965 36978 ft 478 kts 93°
2026-05-04 23:06 42.71000 30.87917 36974 ft 477 kts 94°
2026-05-04 23:06 42.70101 30.96855 36971 ft 477 kts 94°
2026-05-04 23:07 42.69186 31.05725 36969 ft 477 kts 94°
2026-05-04 23:07 42.68248 31.14651 36972 ft 477 kts 94°
2026-05-04 23:08 42.67305 31.23575 36961 ft 477 kts 94°
2026-05-04 23:08 42.66357 31.32500 36958 ft 477 kts 94°
2026-05-04 23:09 42.65401 31.41421 36958 ft 476 kts 94°
2026-05-04 23:09 42.64441 31.50321 36955 ft 476 kts 95°
2026-05-04 23:10 42.63473 31.59221 36953 ft 476 kts 95°
2026-05-04 23:10 42.62497 31.68123 36953 ft 476 kts 95°
2026-05-04 23:11 42.61516 31.77019 36944 ft 476 kts 95°
2026-05-04 23:11 42.60528 31.85923 36947 ft 477 kts 95°
2026-05-04 23:12 42.59533 31.94812 36941 ft 476 kts 95°
2026-05-04 23:12 42.58537 32.03688 36936 ft 476 kts 95°
2026-05-04 23:13 42.57548 32.12563 36936 ft 476 kts 95°
2026-05-04 23:13 42.56532 32.21435 36945 ft 476 kts 96°
2026-05-04 23:14 42.55505 32.30306 36939 ft 476 kts 95°
2026-05-04 23:14 42.54473 32.39180 36937 ft 476 kts 96°
2026-05-04 23:15 42.53438 32.48040 36934 ft 475 kts 96°
2026-05-04 23:15 42.52400 32.56877 36944 ft 475 kts 96°
2026-05-04 23:16 42.51355 32.65716 36939 ft 475 kts 96°
2026-05-04 23:16 42.50301 32.74552 36938 ft 475 kts 96°
2026-05-04 23:17 42.49242 32.83388 36941 ft 475 kts 96°
2026-05-04 23:17 42.48177 32.92212 36941 ft 475 kts 96°
2026-05-04 23:18 42.47109 33.00984 36939 ft 475 kts 96°
2026-05-04 23:18 42.46028 33.09807 36939 ft 475 kts 96°
2026-05-04 23:19 42.44944 33.18632 36940 ft 475 kts 96°
2026-05-04 23:19 42.43850 33.27440 36961 ft 475 kts 96°
2026-05-04 23:20 42.42743 33.36273 36943 ft 476 kts 97°
2026-05-04 23:20 42.41632 33.45112 36941 ft 476 kts 97°
2026-05-04 23:21 42.40517 33.53937 36941 ft 475 kts 97°
2026-05-04 23:21 42.39394 33.62748 36946 ft 475 kts 97°
2026-05-04 23:22 42.38265 33.71555 36944 ft 475 kts 97°
2026-05-04 23:22 42.37130 33.80354 36946 ft 475 kts 97°
2026-05-04 23:23 42.35988 33.89153 36947 ft 475 kts 97°
2026-05-04 23:23 42.34848 33.97945 36947 ft 475 kts 97°
2026-05-04 23:24 42.33694 34.06744 36948 ft 477 kts 98°
2026-05-04 23:24 42.32528 34.15584 36946 ft 478 kts 98°
2026-05-04 23:25 42.31355 34.24426 36944 ft 478 kts 98°
2026-05-04 23:25 42.30177 34.33268 36947 ft 479 kts 98°
2026-05-04 23:26 42.28992 34.42125 36949 ft 480 kts 98°
2026-05-04 23:26 42.27793 34.51008 36945 ft 481 kts 98°
2026-05-04 23:27 42.26583 34.59874 36947 ft 480 kts 99°
2026-05-04 23:27 42.25367 34.68740 36947 ft 480 kts 99°
2026-05-04 23:28 42.24156 34.77546 36952 ft 482 kts 99°
2026-05-04 23:28 42.22927 34.86447 36946 ft 483 kts 99°
2026-05-04 23:29 42.21682 34.95350 36947 ft 483 kts 99°
2026-05-04 23:29 42.20641 35.02745 36946 ft 483 kts 99°
2026-05-04 23:30 42.19382 35.11641 36947 ft 484 kts 100°
2026-05-04 23:30 42.18117 35.20546 36946 ft 484 kts 100°
2026-05-04 23:31 42.16843 35.29462 36944 ft 484 kts 100°
2026-05-04 23:31 42.15562 35.38381 36945 ft 484 kts 100°
2026-05-04 23:32 42.14282 35.47294 36945 ft 485 kts 100°
2026-05-04 23:32 42.12987 35.56219 36945 ft 485 kts 101°
2026-05-04 23:33 42.11684 35.65130 36944 ft 485 kts 101°
2026-05-04 23:33 42.10376 35.74046 36945 ft 485 kts 101°
2026-05-04 23:34 42.09062 35.82958 36941 ft 486 kts 101°
2026-05-04 23:34 42.07741 35.91878 36942 ft 486 kts 101°
2026-05-04 23:35 42.06410 36.00798 36938 ft 486 kts 101°
2026-05-04 23:35 42.05071 36.09713 36936 ft 486 kts 101°
2026-05-04 23:36 42.03728 36.18620 36939 ft 487 kts 101°
2026-05-04 23:36 42.02375 36.27551 36938 ft 487 kts 101°
2026-05-04 23:37 42.01015 36.36475 36939 ft 487 kts 101°
2026-05-04 23:37 41.99648 36.45396 36939 ft 487 kts 101°
2026-05-04 23:38 41.98275 36.54304 36937 ft 487 kts 102°
2026-05-04 23:38 41.96893 36.63218 36935 ft 487 kts 102°
2026-05-04 23:39 41.95503 36.72132 36936 ft 487 kts 102°
2026-05-04 23:39 41.94109 36.81018 36934 ft 487 kts 102°
2026-05-04 23:40 41.92708 36.89939 36934 ft 488 kts 102°
2026-05-04 23:40 41.91296 36.98860 36933 ft 489 kts 102°
2026-05-04 23:41 41.90393 37.07828 36935 ft 489 kts 93°
2026-05-04 23:41 41.90176 37.16946 36928 ft 489 kts 91°
2026-05-04 23:42 41.90058 37.26082 36932 ft 491 kts 91°
2026-05-04 23:42 41.89938 37.35234 36933 ft 491 kts 92°
2026-05-04 23:43 41.89797 37.44384 36932 ft 490 kts 91°
2026-05-04 23:43 41.89640 37.53533 36932 ft 490 kts 92°
2026-05-04 23:44 41.89474 37.62666 36929 ft 490 kts 92°
2026-05-04 23:44 41.89300 37.71846 36927 ft 492 kts 92°
2026-05-04 23:45 41.89121 37.81031 36929 ft 492 kts 92°
2026-05-04 23:45 41.88934 37.90208 36928 ft 492 kts 92°
2026-05-04 23:46 41.88737 37.99384 36930 ft 492 kts 92°
2026-05-04 23:46 41.88537 38.08554 36926 ft 493 kts 93°
2026-05-04 23:47 41.88328 38.17758 36927 ft 493 kts 93°
2026-05-04 23:47 41.88112 38.26954 36922 ft 493 kts 93°
2026-05-04 23:48 41.87888 38.36165 36923 ft 493 kts 93°
2026-05-04 23:48 41.87658 38.45361 36918 ft 493 kts 94°
2026-05-04 23:49 41.87419 38.54581 36924 ft 496 kts 94°
2026-05-04 23:49 41.87168 38.63826 36920 ft 496 kts 94°
2026-05-04 23:50 41.86915 38.73019 36921 ft 496 kts 94°
2026-05-04 23:50 41.86653 38.82319 36918 ft 496 kts 94°
2026-05-04 23:51 41.86385 38.91510 36920 ft 496 kts 94°
2026-05-04 23:51 41.86110 39.00765 36926 ft 497 kts 94°
2026-05-04 23:52 41.85824 39.10017 36924 ft 497 kts 94°
2026-05-04 23:52 41.85530 39.19282 36921 ft 497 kts 94°
2026-05-04 23:53 41.85231 39.28541 36917 ft 497 kts 94°
2026-05-04 23:53 41.84924 39.37808 36925 ft 498 kts 94°
2026-05-04 23:54 41.84609 39.47088 36917 ft 498 kts 94°
2026-05-04 23:54 41.84290 39.56368 36919 ft 498 kts 95°
2026-05-04 23:55 41.83960 39.65646 36915 ft 498 kts 95°
2026-05-04 23:56 41.83448 39.79571 36923 ft 499 kts 95°
2026-05-04 23:56 41.83097 39.88884 36922 ft 500 kts 95°
2026-05-04 23:57 41.82738 39.98185 36922 ft 500 kts 95°
2026-05-04 23:57 41.82375 40.07494 36926 ft 500 kts 95°
2026-05-04 23:58 41.82005 40.16807 36925 ft 501 kts 95°
2026-05-04 23:58 41.81622 40.26135 36918 ft 501 kts 95°
2026-05-04 23:59 41.81233 40.35464 36923 ft 501 kts 95°
2026-05-04 23:59 41.80836 40.44791 36924 ft 501 kts 95°
2026-05-05 00:00 41.80432 40.54118 36923 ft 501 kts 96°
2026-05-05 00:00 41.80161 40.63449 36926 ft 503 kts 89°
2026-05-05 00:01 41.81377 40.72641 36922 ft 507 kts 77°
2026-05-05 00:01 41.83234 40.81763 36919 ft 507 kts 76°
2026-05-05 00:02 41.85173 40.90850 36920 ft 507 kts 76°
2026-05-05 00:02 41.87090 40.99956 36917 ft 507 kts 76°
2026-05-05 00:03 41.88976 41.09060 36916 ft 507 kts 76°
2026-05-05 00:03 41.90854 41.18182 36914 ft 507 kts 77°
2026-05-05 00:04 41.92725 41.27323 36910 ft 508 kts 77°
2026-05-05 00:04 41.94591 41.36475 36908 ft 508 kts 77°
2026-05-05 00:05 41.96453 41.45644 36902 ft 508 kts 77°
2026-05-05 00:05 41.98304 41.54803 36895 ft 508 kts 77°
2026-05-05 00:06 42.00148 41.63964 36894 ft 507 kts 77°
2026-05-05 00:06 42.01985 41.73128 36889 ft 507 kts 77°
2026-05-05 00:07 42.03815 41.82296 36880 ft 507 kts 78°
2026-05-05 00:07 42.05624 41.91414 36887 ft 508 kts 78°
2026-05-05 00:08 42.07448 42.00661 36880 ft 509 kts 78°
2026-05-05 00:08 42.09259 42.09863 36882 ft 508 kts 78°
2026-05-05 00:09 42.11050 42.19008 36871 ft 508 kts 78°
2026-05-05 00:09 42.12847 42.28237 36879 ft 510 kts 78°
2026-05-05 00:10 42.14639 42.37478 36884 ft 510 kts 78°
2026-05-05 00:10 42.16423 42.46720 36884 ft 510 kts 78°
2026-05-05 00:11 42.18201 42.55975 36890 ft 509 kts 78°
2026-05-05 00:11 42.19971 42.65216 36870 ft 510 kts 78°
2026-05-05 00:12 42.21734 42.74492 36863 ft 510 kts 79°
2026-05-05 00:12 42.23490 42.83765 36872 ft 511 kts 79°
2026-05-05 00:13 42.25242 42.93054 36870 ft 511 kts 79°
2026-05-05 00:13 42.26606 43.02414 36872 ft 505 kts 90°
2026-05-05 00:14 42.26009 43.11719 36869 ft 494 kts 109°
2026-05-05 00:14 42.23668 43.20376 36874 ft 490 kts 117°
2026-05-05 00:15 42.20900 43.28794 36867 ft 491 kts 118°
2026-05-05 00:15 42.18090 43.37192 36874 ft 492 kts 118°
2026-05-05 00:16 42.15317 43.45614 36868 ft 492 kts 117°
2026-05-05 00:16 42.13026 43.52625 36868 ft 492 kts 118°
2026-05-05 00:17 42.10266 43.61071 36865 ft 492 kts 118°
2026-05-05 00:17 42.06953 43.69047 36867 ft 486 kts 127°
2026-05-05 00:18 42.03229 43.76628 36855 ft 486 kts 128°
2026-05-05 00:18 41.99434 43.84153 36862 ft 486 kts 128°
2026-05-05 00:19 41.95640 43.91671 36857 ft 486 kts 128°
2026-05-05 00:19 41.91846 43.99199 36845 ft 486 kts 129°
2026-05-05 00:20 41.88050 44.06724 36864 ft 486 kts 129°
2026-05-05 00:20 41.84274 44.14192 36867 ft 487 kts 129°
2026-05-05 00:21 41.80471 44.21692 36867 ft 487 kts 129°
2026-05-05 00:21 41.76655 44.29193 36874 ft 487 kts 129°
2026-05-05 00:22 41.72838 44.36687 36871 ft 487 kts 129°
2026-05-05 00:22 41.69020 44.44164 36874 ft 487 kts 129°
2026-05-05 00:23 41.65201 44.51626 36879 ft 488 kts 129°
2026-05-05 00:23 41.61361 44.59107 36878 ft 488 kts 129°
2026-05-05 00:24 41.57523 44.66567 36880 ft 487 kts 129°
2026-05-05 00:24 41.53678 44.74020 36879 ft 487 kts 129°
2026-05-05 00:25 41.49831 44.81462 36878 ft 487 kts 129°
2026-05-05 00:25 41.45978 44.88896 36870 ft 487 kts 129°
2026-05-05 00:26 41.42120 44.96322 36851 ft 488 kts 130°
2026-05-05 00:26 41.38233 45.03784 36862 ft 490 kts 130°
2026-05-05 00:27 41.35011 45.11856 36869 ft 500 kts 116°
2026-05-05 00:27 41.32648 45.20587 36844 ft 503 kts 114°
2026-05-05 00:28 41.30408 45.29438 36862 ft 506 kts 114°
2026-05-05 00:28 41.28159 45.38301 36848 ft 506 kts 114°
2026-05-05 00:29 41.25896 45.47091 36858 ft 505 kts 115°
2026-05-05 00:29 41.23603 45.55912 36856 ft 506 kts 115°
2026-05-05 00:30 41.21292 45.64770 36854 ft 508 kts 115°
2026-05-05 00:30 41.18974 45.73633 36857 ft 508 kts 115°
2026-05-05 00:31 41.16639 45.82480 36831 ft 508 kts 116°
2026-05-05 00:31 41.14295 45.91317 36872 ft 508 kts 116°
2026-05-05 00:32 41.11941 46.00172 36859 ft 509 kts 116°
2026-05-05 00:32 41.09584 46.09015 36861 ft 508 kts 116°
2026-05-05 00:33 41.07224 46.17843 36875 ft 509 kts 116°
2026-05-05 00:33 41.04855 46.26673 36877 ft 508 kts 116°
2026-05-05 00:34 41.02493 46.35495 36868 ft 508 kts 116°
2026-05-05 00:34 41.00133 46.44333 36861 ft 509 kts 117°
2026-05-05 00:35 40.97764 46.53167 36888 ft 510 kts 117°
2026-05-05 00:35 40.95384 46.62008 36875 ft 510 kts 117°
2026-05-05 00:36 40.92996 46.70848 36875 ft 510 kts 117°
2026-05-05 00:36 40.91077 46.79946 36868 ft 524 kts 104°
2026-05-05 00:36 40.90875 46.84803 36876 ft 535 kts 94°
2026-05-05 00:37 40.91325 46.89725 36881 ft 543 kts 84°
2026-05-05 00:37 40.93004 46.99500 36858 ft 547 kts 81°
2026-05-05 00:38 40.94885 47.09264 36874 ft 548 kts 81°
2026-05-05 00:38 40.96739 47.19046 36876 ft 548 kts 81°
2026-05-05 00:39 40.98541 47.28834 36866 ft 547 kts 81°
2026-05-05 00:39 41.00323 47.38633 36874 ft 548 kts 81°
2026-05-05 00:40 41.02086 47.48384 36875 ft 549 kts 82°
2026-05-05 00:40 41.03855 47.58219 36872 ft 549 kts 82°
2026-05-05 00:41 41.05615 47.68056 36860 ft 549 kts 81°
2026-05-05 00:41 41.07375 47.77943 36860 ft 553 kts 82°
2026-05-05 00:42 41.09133 47.87858 36852 ft 553 kts 82°
2026-05-05 00:42 41.10970 47.97761 36845 ft 556 kts 75°
2026-05-05 00:43 41.13531 48.07443 36841 ft 554 kts 72°
2026-05-05 00:43 41.16207 48.16999 36852 ft 551 kts 72°
2026-05-05 00:44 41.18863 48.26550 36860 ft 552 kts 73°
2026-05-05 00:44 41.21504 48.36114 36858 ft 549 kts 72°
2026-05-05 00:45 41.24107 48.45578 36878 ft 545 kts 72°
2026-05-05 00:45 41.26697 48.55033 36885 ft 544 kts 72°
2026-05-05 00:46 41.29274 48.64485 36888 ft 544 kts 72°
2026-05-05 00:46 41.31842 48.73933 36906 ft 542 kts 72°
2026-05-05 00:47 41.34397 48.83366 36892 ft 542 kts 72°
2026-05-05 00:47 41.36949 48.92814 36900 ft 542 kts 73°
2026-05-05 00:48 41.39482 49.02244 36908 ft 540 kts 73°
2026-05-05 00:48 41.42004 49.11682 36904 ft 540 kts 73°
2026-05-05 00:49 41.44518 49.21118 36910 ft 541 kts 73°
2026-05-05 00:49 41.47011 49.30498 36909 ft 540 kts 73°
2026-05-05 00:50 41.49510 49.39944 36908 ft 540 kts 73°
2026-05-05 00:50 41.52004 49.49412 36904 ft 540 kts 73°
2026-05-05 00:51 41.54487 49.58873 36910 ft 540 kts 73°
2026-05-05 00:51 41.56957 49.68328 36911 ft 540 kts 73°
2026-05-05 00:52 41.59425 49.77801 36910 ft 539 kts 73°
2026-05-05 00:52 41.61881 49.87266 36908 ft 540 kts 73°
2026-05-05 00:53 41.64335 49.96766 36911 ft 540 kts 74°
2026-05-05 00:53 41.66782 50.06271 36908 ft 540 kts 74°
2026-05-05 00:54 41.69218 50.15774 36908 ft 540 kts 74°
2026-05-05 00:54 41.71646 50.25293 36908 ft 541 kts 74°
2026-05-05 00:55 41.74072 50.34819 36908 ft 540 kts 74°
2026-05-05 00:55 41.76489 50.44362 36893 ft 541 kts 74°
2026-05-05 00:56 41.78896 50.53906 36903 ft 542 kts 74°
2026-05-05 00:56 41.81298 50.63469 36903 ft 541 kts 74°
2026-05-05 00:57 41.83695 50.73040 36903 ft 542 kts 74°
2026-05-05 00:57 41.86084 50.82615 36900 ft 541 kts 74°
2026-05-05 00:58 41.88462 50.92204 36897 ft 541 kts 74°
2026-05-05 00:58 41.90814 51.01721 36897 ft 541 kts 74°
2026-05-05 00:59 41.93179 51.11320 36886 ft 542 kts 74°
2026-05-05 00:59 41.95534 51.20925 36890 ft 542 kts 74°
2026-05-05 01:00 41.97883 51.30541 36889 ft 541 kts 74°
2026-05-05 01:00 42.00221 51.40155 36902 ft 541 kts 74°
2026-05-05 01:01 42.03321 51.49388 36901 ft 543 kts 59°
2026-05-05 01:01 42.07346 51.57998 36902 ft 544 kts 57°
2026-05-05 01:02 42.11499 51.66512 36878 ft 544 kts 57°
2026-05-05 01:02 42.15649 51.75030 36877 ft 544 kts 57°
2026-05-05 01:03 42.19777 51.83582 36894 ft 544 kts 57°
2026-05-05 01:03 42.23888 51.92149 36888 ft 544 kts 57°
2026-05-05 01:04 42.27295 51.99268 36884 ft 543 kts 57°
2026-05-05 01:04 42.33432 52.12137 36881 ft 543 kts 57°
2026-05-05 01:05 42.37510 52.20721 36881 ft 543 kts 57°
2026-05-05 01:05 42.41592 52.29331 36876 ft 543 kts 57°
2026-05-05 01:06 42.45668 52.37955 36876 ft 544 kts 58°
2026-05-05 01:06 42.49729 52.46578 36879 ft 542 kts 58°
2026-05-05 01:07 42.53775 52.55182 36871 ft 541 kts 58°
2026-05-05 01:07 42.57809 52.63791 36870 ft 541 kts 58°
2026-05-05 01:08 42.61831 52.72399 36878 ft 539 kts 58°
2026-05-05 01:08 42.65839 52.81002 36875 ft 539 kts 58°
2026-05-05 01:09 42.69838 52.89609 36877 ft 539 kts 58°
2026-05-05 01:09 42.73831 52.98229 36876 ft 538 kts 58°
2026-05-05 01:10 42.77806 53.06838 36860 ft 537 kts 58°
2026-05-05 01:10 42.81769 53.15447 36881 ft 537 kts 58°
2026-05-05 01:11 42.85728 53.24072 36878 ft 536 kts 58°
2026-05-05 01:11 42.89677 53.32698 36878 ft 536 kts 58°
2026-05-05 01:12 42.93617 53.41328 36876 ft 536 kts 58°
2026-05-05 01:12 42.97546 53.49962 36877 ft 535 kts 58°
2026-05-05 01:13 43.00885 53.59002 36937 ft 534 kts 74°
2026-05-05 01:13 43.01726 53.63934 37114 ft 531 kts 84°
2026-05-05 01:13 43.02211 53.68922 37357 ft 529 kts 86°
2026-05-05 01:14 43.02593 53.73912 37562 ft 527 kts 87°
2026-05-05 01:14 43.02922 53.78890 37777 ft 526 kts 87°
2026-05-05 01:14 43.03232 53.83858 38018 ft 524 kts 87°
2026-05-05 01:14 43.03540 53.88814 38201 ft 523 kts 87°
2026-05-05 01:15 43.03852 53.93764 38352 ft 523 kts 87°
2026-05-05 01:15 43.04169 53.98710 38504 ft 522 kts 87°
2026-05-05 01:15 43.04490 54.03656 38623 ft 522 kts 87°
2026-05-05 01:15 43.04811 54.08598 38685 ft 522 kts 87°
2026-05-05 01:16 43.05453 54.18498 38857 ft 523 kts 87°
2026-05-05 01:16 43.06083 54.28379 38869 ft 526 kts 87°
2026-05-05 01:17 43.06713 54.38414 38870 ft 526 kts 87°
2026-05-05 01:17 43.07329 54.48331 38870 ft 526 kts 87°
2026-05-05 01:18 43.07939 54.58299 38866 ft 526 kts 87°
2026-05-05 01:18 43.08541 54.68288 38870 ft 528 kts 87°
2026-05-05 01:19 43.09134 54.78291 38870 ft 528 kts 88°
2026-05-05 01:19 43.09720 54.88334 38868 ft 530 kts 88°
2026-05-05 01:20 43.10298 54.98391 38866 ft 531 kts 87°
2026-05-05 01:20 43.10868 55.08469 38868 ft 531 kts 88°
2026-05-05 01:21 43.11431 55.18547 38864 ft 531 kts 88°
2026-05-05 01:21 43.11986 55.28636 38865 ft 531 kts 88°
2026-05-05 01:22 43.12529 55.38717 38862 ft 531 kts 88°
2026-05-05 01:22 43.13065 55.48798 38862 ft 531 kts 88°
2026-05-05 01:23 43.13592 55.58896 38860 ft 532 kts 88°
2026-05-05 01:23 43.14111 55.69016 38863 ft 534 kts 88°
2026-05-05 01:24 43.14623 55.79157 38865 ft 534 kts 88°
2026-05-05 01:24 43.15125 55.89301 38859 ft 534 kts 88°
2026-05-05 01:25 43.15776 55.99415 38865 ft 535 kts 81°
2026-05-05 01:25 43.17579 56.09302 38863 ft 536 kts 75°
2026-05-05 01:26 43.19640 56.19118 38862 ft 536 kts 74°
2026-05-05 01:26 43.21733 56.28935 38867 ft 537 kts 74°
2026-05-05 01:27 43.23806 56.38767 38869 ft 537 kts 74°
2026-05-05 01:27 43.25857 56.48620 38868 ft 537 kts 75°
2026-05-05 01:28 43.27890 56.58461 38865 ft 535 kts 74°
2026-05-05 01:28 43.29908 56.68265 38862 ft 534 kts 74°
2026-05-05 01:29 43.31921 56.78086 38868 ft 534 kts 75°
2026-05-05 01:29 43.33923 56.87902 38863 ft 533 kts 75°
2026-05-05 01:30 43.35907 56.97678 38874 ft 530 kts 75°
2026-05-05 01:30 43.37877 57.07430 38877 ft 530 kts 75°
2026-05-05 01:31 43.39828 57.17136 38878 ft 530 kts 75°
2026-05-05 01:31 43.41794 57.26975 38874 ft 529 kts 75°
2026-05-05 01:32 43.43723 57.36666 38877 ft 529 kts 75°
2026-05-05 01:32 43.45658 57.46428 38878 ft 529 kts 75°
2026-05-05 01:33 43.47584 57.56201 38875 ft 529 kts 75°
2026-05-05 01:33 43.49498 57.65968 38881 ft 528 kts 75°
2026-05-05 01:34 43.51403 57.75723 38883 ft 528 kts 75°
2026-05-05 01:34 43.53298 57.85488 38886 ft 528 kts 75°
2026-05-05 01:35 43.55183 57.95249 38882 ft 527 kts 75°
2026-05-05 01:35 43.57061 58.05021 38885 ft 527 kts 75°
2026-05-05 01:36 43.58930 58.14786 38893 ft 527 kts 75°
2026-05-05 01:36 43.60790 58.24562 38892 ft 527 kts 75°
2026-05-05 01:37 43.62642 58.34355 38896 ft 527 kts 76°
2026-05-05 01:37 43.64475 58.44159 38882 ft 527 kts 76°
2026-05-05 01:38 43.66271 58.53979 38896 ft 528 kts 76°
2026-05-05 01:38 43.68057 58.63797 38902 ft 527 kts 76°
2026-05-05 01:39 43.69840 58.73618 38892 ft 527 kts 76°
2026-05-05 01:39 43.71614 58.83435 38903 ft 527 kts 76°
2026-05-05 01:40 43.73385 58.93263 38903 ft 527 kts 76°
2026-05-05 01:40 43.75142 59.03092 38902 ft 527 kts 76°
2026-05-05 01:41 43.76921 59.12914 38906 ft 527 kts 76°
2026-05-05 01:41 43.78721 59.22739 38905 ft 527 kts 76°
2026-05-05 01:42 43.80498 59.32498 38905 ft 526 kts 76°
2026-05-05 01:42 43.82271 59.42314 38910 ft 525 kts 76°
2026-05-05 01:43 43.84043 59.52190 38897 ft 525 kts 76°
2026-05-05 01:43 43.85796 59.62017 38912 ft 525 kts 76°
2026-05-05 01:44 43.87539 59.71827 38907 ft 524 kts 76°
2026-05-05 01:44 43.89238 59.81593 38909 ft 524 kts 76°
2026-05-05 01:45 43.90916 59.91425 38923 ft 524 kts 76°
2026-05-05 01:45 43.92590 60.01258 38927 ft 523 kts 76°
2026-05-05 01:46 43.94256 60.11082 38920 ft 523 kts 76°
2026-05-05 01:46 43.95916 60.20911 38920 ft 523 kts 76°
2026-05-05 01:47 43.97567 60.30744 38924 ft 523 kts 76°
2026-05-05 01:47 43.99209 60.40569 38932 ft 522 kts 76°
2026-05-05 01:48 44.00842 60.50387 38931 ft 522 kts 76°
2026-05-05 01:48 44.02189 60.58552 38938 ft 522 kts 76°
2026-05-05 01:49 44.03805 60.68381 38951 ft 522 kts 76°
2026-05-05 01:49 44.05412 60.78201 38947 ft 521 kts 76°
2026-05-05 01:50 44.07010 60.88033 38946 ft 522 kts 77°
2026-05-05 01:50 44.08599 60.97882 38943 ft 522 kts 77°
2026-05-05 01:51 44.10179 61.07730 38956 ft 522 kts 77°
2026-05-05 01:51 44.11752 61.17578 38949 ft 521 kts 77°
2026-05-05 01:52 44.13317 61.27434 38949 ft 521 kts 77°
2026-05-05 01:52 44.14341 61.37425 38953 ft 522 kts 85°
2026-05-05 01:53 44.14842 61.47495 38955 ft 522 kts 86°
2026-05-05 01:53 44.15262 61.57589 38968 ft 522 kts 86°
2026-05-05 01:54 44.15678 61.67666 38957 ft 522 kts 86°
2026-05-05 01:54 44.16099 61.77762 38968 ft 522 kts 86°
2026-05-05 01:55 44.16513 61.87846 38965 ft 521 kts 86°
2026-05-05 01:55 44.16919 61.97911 38964 ft 520 kts 86°
2026-05-05 01:56 44.17314 62.07966 38967 ft 520 kts 86°
2026-05-05 01:56 44.17704 62.18029 38966 ft 520 kts 86°
2026-05-05 01:57 44.18085 62.28092 38964 ft 519 kts 86°
2026-05-05 01:57 44.18456 62.38136 38967 ft 518 kts 87°
2026-05-05 01:58 44.18796 62.48172 38972 ft 519 kts 87°
2026-05-05 01:58 44.19126 62.58145 38971 ft 519 kts 87°
2026-05-05 01:59 44.19451 62.68186 38972 ft 519 kts 87°
2026-05-05 01:59 44.19771 62.78225 38977 ft 518 kts 87°
2026-05-05 02:00 44.20083 62.88259 38980 ft 519 kts 87°
2026-05-05 02:00 44.20385 62.98301 38975 ft 519 kts 87°
2026-05-05 02:01 44.20678 63.08334 38972 ft 516 kts 87°
2026-05-05 02:01 44.20961 63.18311 38974 ft 515 kts 87°
2026-05-05 02:02 44.21138 63.28277 38979 ft 515 kts 89°
2026-05-05 02:02 44.21224 63.38265 38979 ft 515 kts 89°
2026-05-05 02:03 44.21316 63.48247 38974 ft 514 kts 89°
2026-05-05 02:03 44.21416 63.58123 38980 ft 512 kts 89°
2026-05-05 02:04 44.21514 63.68101 38983 ft 511 kts 89°
2026-05-05 02:04 44.21603 63.78009 38981 ft 511 kts 89°
2026-05-05 02:05 44.21684 63.87923 38989 ft 511 kts 89°
2026-05-05 02:05 44.21757 63.97824 38986 ft 510 kts 89°
2026-05-05 02:06 44.21818 64.07711 38987 ft 510 kts 89°
2026-05-05 02:06 44.21871 64.17610 38988 ft 510 kts 89°
2026-05-05 02:07 44.22180 64.27488 38992 ft 510 kts 85°
2026-05-05 02:07 44.22723 64.37293 38990 ft 511 kts 85°
2026-05-05 02:08 44.23230 64.47162 38992 ft 510 kts 86°
2026-05-05 02:08 44.23680 64.57044 38992 ft 510 kts 86°
2026-05-05 02:09 44.24104 64.66932 38990 ft 510 kts 86°
2026-05-05 02:09 44.24517 64.76796 38990 ft 509 kts 86°
2026-05-05 02:10 44.24921 64.86667 38986 ft 509 kts 86°
2026-05-05 02:10 44.25290 64.96529 38991 ft 509 kts 87°
2026-05-05 02:11 44.25646 65.06406 38991 ft 509 kts 87°
2026-05-05 02:11 44.25995 65.16247 38992 ft 508 kts 87°
2026-05-05 02:12 44.26510 65.31008 38994 ft 508 kts 87°
2026-05-05 02:13 44.26843 65.40838 38996 ft 508 kts 87°
2026-05-05 02:13 44.27168 65.50683 38988 ft 507 kts 87°
2026-05-05 02:14 44.27481 65.60497 38999 ft 506 kts 87°
2026-05-05 02:14 44.27787 65.70317 38997 ft 506 kts 87°
2026-05-05 02:15 44.28084 65.80070 38996 ft 507 kts 87°
2026-05-05 02:15 44.28372 65.89887 39000 ft 506 kts 87°
2026-05-05 02:16 44.28654 65.99718 38995 ft 506 kts 87°
2026-05-05 02:16 44.28925 66.09527 39001 ft 506 kts 87°
2026-05-05 02:17 44.29190 66.19351 39000 ft 506 kts 87°
2026-05-05 02:17 44.29445 66.29169 38999 ft 507 kts 87°
2026-05-05 02:18 44.29693 66.39007 39006 ft 507 kts 87°
2026-05-05 02:18 44.29905 66.48845 39006 ft 507 kts 88°
2026-05-05 02:19 44.29969 66.58698 39005 ft 507 kts 89°
2026-05-05 02:19 44.30003 66.68546 39001 ft 508 kts 89°
2026-05-05 02:20 44.30052 66.78398 39007 ft 508 kts 89°
2026-05-05 02:20 44.30105 66.88258 39003 ft 508 kts 89°
2026-05-05 02:21 44.30152 66.98113 39002 ft 508 kts 89°
2026-05-05 02:21 44.30191 67.07962 39008 ft 508 kts 89°
2026-05-05 02:22 44.30219 67.17831 39010 ft 508 kts 89°
2026-05-05 02:22 44.30240 67.27703 39010 ft 508 kts 89°
2026-05-05 02:23 44.30252 67.37573 39011 ft 508 kts 89°
2026-05-05 02:23 44.30257 67.47442 39013 ft 508 kts 89°
2026-05-05 02:24 44.30315 67.57267 39017 ft 506 kts 86°
2026-05-05 02:24 44.30858 67.66989 39017 ft 505 kts 83°
2026-05-05 02:25 44.31507 67.76750 39019 ft 505 kts 84°
2026-05-05 02:25 44.32078 67.86524 39021 ft 505 kts 84°
2026-05-05 02:26 44.32592 67.96369 39019 ft 505 kts 85°
2026-05-05 02:26 44.33083 68.06088 39018 ft 505 kts 85°
2026-05-05 02:27 44.33570 68.15868 39022 ft 505 kts 85°
2026-05-05 02:27 44.34052 68.25658 39027 ft 505 kts 85°
2026-05-05 02:28 44.34524 68.35423 39020 ft 503 kts 85°
2026-05-05 02:28 44.34987 68.45182 39021 ft 503 kts 85°
2026-05-05 02:29 44.35442 68.54945 39024 ft 503 kts 85°
2026-05-05 02:29 44.35888 68.64697 39032 ft 502 kts 85°
2026-05-05 02:30 44.36324 68.74425 39030 ft 501 kts 85°
2026-05-05 02:30 44.36752 68.84148 39036 ft 502 kts 85°
2026-05-05 02:31 44.36896 68.93891 39037 ft 502 kts 91°
2026-05-05 02:31 44.36500 69.03630 39042 ft 501 kts 93°
2026-05-05 02:32 44.36018 69.13341 39047 ft 500 kts 93°
2026-05-05 02:32 44.35524 69.23027 39050 ft 500 kts 93°
2026-05-05 02:33 44.35029 69.32703 39039 ft 500 kts 93°
2026-05-05 02:33 44.34531 69.42394 39043 ft 500 kts 93°
2026-05-05 02:34 44.34029 69.52055 39050 ft 498 kts 93°
2026-05-05 02:34 44.33518 69.61706 39050 ft 498 kts 93°
2026-05-05 02:35 44.33087 69.69715 39049 ft 498 kts 93°
2026-05-05 02:35 44.32562 69.79343 39061 ft 498 kts 93°
2026-05-05 02:36 44.32028 69.88985 39047 ft 497 kts 93°
2026-05-05 02:36 44.31488 69.98600 39056 ft 497 kts 94°
2026-05-05 02:37 44.30938 70.08216 39060 ft 497 kts 94°
2026-05-05 02:37 44.30382 70.17817 39056 ft 496 kts 94°
2026-05-05 02:38 44.29816 70.27424 39056 ft 496 kts 94°
2026-05-05 02:38 44.29247 70.37012 39057 ft 495 kts 94°
2026-05-05 02:39 44.28660 70.46588 39058 ft 495 kts 94°
2026-05-05 02:39 44.28062 70.56170 39061 ft 496 kts 94°
2026-05-05 02:40 44.27459 70.65753 39057 ft 496 kts 94°
2026-05-05 02:40 44.26847 70.75340 39064 ft 496 kts 94°
2026-05-05 02:41 44.26228 70.84931 39064 ft 496 kts 94°
2026-05-05 02:41 44.25603 70.94502 39062 ft 496 kts 94°
2026-05-05 02:42 44.24968 71.04088 39066 ft 496 kts 94°
2026-05-05 02:42 44.24324 71.13650 39066 ft 495 kts 94°
2026-05-05 02:43 44.23674 71.23204 39069 ft 495 kts 94°
2026-05-05 02:43 44.23021 71.32695 39071 ft 495 kts 94°
2026-05-05 02:44 44.22360 71.42246 39073 ft 495 kts 94°
2026-05-05 02:44 44.21715 71.51810 39074 ft 495 kts 94°
2026-05-05 02:45 44.21071 71.61353 39077 ft 494 kts 94°
2026-05-05 02:45 44.20417 71.70898 39077 ft 495 kts 94°
2026-05-05 02:46 44.19754 71.80433 39078 ft 495 kts 94°
2026-05-05 02:46 44.19082 71.89968 39082 ft 494 kts 94°
2026-05-05 02:47 44.18403 71.99494 39081 ft 494 kts 95°
2026-05-05 02:47 44.17714 72.09027 39079 ft 494 kts 95°
2026-05-05 02:48 44.17018 72.18538 39080 ft 494 kts 95°
2026-05-05 02:48 44.16314 72.28061 39085 ft 495 kts 95°
2026-05-05 02:49 44.15602 72.37593 39077 ft 495 kts 95°
2026-05-05 02:49 44.14882 72.47111 39081 ft 494 kts 95°
2026-05-05 02:50 44.14158 72.56571 39084 ft 494 kts 95°
2026-05-05 02:50 44.13423 72.66084 39082 ft 494 kts 95°
2026-05-05 02:51 44.12679 72.75586 39085 ft 494 kts 95°
2026-05-05 02:51 44.11928 72.85102 39082 ft 494 kts 95°
2026-05-05 02:52 44.11168 72.94601 39078 ft 494 kts 96°
2026-05-05 02:52 44.10403 73.04105 39076 ft 494 kts 96°
2026-05-05 02:53 44.09614 73.13615 39086 ft 495 kts 96°
2026-05-05 02:53 44.09480 73.15216 39084 ft 495 kts 96°